Regional Weather Roundup
Issued by NWS Charleston, SC

Current Version | Previous Version | Text Only | Print | Product List | Glossary Off
Versions: 1 2 3 4 5 6 7 8 9 10 11 12 13 14 15 16 17 18 19 20 21 22 23 24 25 26 27 28 29 30 31 32 33 34 35 36 37 38 39 40 41 42 43 44 45 46 47 48 49 50

000
ASUS42 KCHS 280611
RWRCHS
REGIONAL WEATHER ROUNDUP
NATIONAL WEATHER SERVICE CHARLESTON SC
100 AM EST SAT FEB 28 2015

NOTE: "FAIR" INDICATES FEW OR NO CLOUDS BELOW 12,000 FEET WITH NO
SIGNIFICANT WEATHER AND/OR OBSTRUCTIONS TO VISIBILITY.

NOT ALL STATIONS ARE QUALITY CONTROLLED BY THE NATIONAL
WEATHER SERVICE. USE DATA WITH CAUTION...ESPECIALLY
DEWPOINT OBSERVATIONS.

SCZ027-030-031-034>040-042>050-280700-
...SOUTHEAST SOUTH CAROLINA...

CITY           SKY/WX    TMP DP  RH WIND       PRES   REMARKS
N CHARLESTON   PTCLDY    38  34  85 NE6       30.48R WCI  33
6HR MIN TEMP:  38; 6HR MAX TEMP:  45;

WATERFRONT PRK NOT AVBL
MOUNT PLEASANT LGT RAIN  36  36 100 CALM      30.48R
PINOPOLIS        N/A     43  37  81 E7        30.40R
MONCKS CORNER  FAIR      39  34  81 NE5       30.49R WCI  36
SUMMERVILLE    NOT AVBL
BEAUFORT MCAS  PTCLDY    41  35  79 NE6       30.46R
6HR MIN TEMP:  39; 6HR MAX TEMP:  45;

BEAUFORT ARPT  FAIR      41  37  87 CALM      30.46R
HILTON HEAD IS MOCLDY    45  39  81 N7        30.46S
WALTERBORO     PTCLDY    41  36  81 E5        30.49R
ALLENDALE      FAIR      41  36  81 CALM      30.47S

...SOUTHERN MIDLANDS AND PEE DEE...

CITY           SKY/WX    TMP DP  RH WIND       PRES   REMARKS
GEORGETOWN     NOT AVBL
KINGSTREE      NOT AVBL
ORANGEBURG     MOCLDY    38  33  82 NE6       30.49R WCI  33
6HR MIN TEMP:  36; 6HR MAX TEMP:  47;

BARNWELL       FAIR      37  36  93 CALM      30.48S
AIKEN          FAIR      36  34  93 NE7       30.51R WCI  30
MANNING        FAIR     N/A N/A N/A N3        30.50S
COLUMBIA       CLEAR     41  30  65 E8        30.50R
6HR MIN TEMP:  39; 6HR MAX TEMP:  48;

SUMTER         CLEAR     37  29  72 E6        30.50R WCI  33
6HR MIN TEMP:  35; 6HR MAX TEMP:  46;

FLORENCE       CLEAR     36  28  73 NE7       30.53R WCI  30
6HR MIN TEMP:  35; 6HR MAX TEMP:  46;

MYRTLE BEACH   PTCLDY    39  34  81 N9        30.53S WCI  33
N MYRTLE BEACH PTCLDY    37  32  82 NE8       30.51R WCI  31
6HR MIN TEMP:  35; 6HR MAX TEMP:  44;


$$

GAZ063-065-086>088-099>101-113>116-118-119-134>141-150-280700-
...SOUTHEAST GEORGIA...

CITY           SKY/WX    TMP DP  RH WIND       PRES   REMARKS
SAVANNAH ARPT  MOCLDY    39  35  86 N6        30.46R WCI  35
6HR MIN TEMP:  39; 6HR MAX TEMP:  46;

HUNTER AAF     MOCLDY    43  38  83 N5        30.42S
6HR MIN TEMP:  43; 6HR MAX TEMP:  46;

FORT STEWART   MOCLDY    39  36  90 N5        30.42S WCI  35
6HR MIN TEMP:  38; 6HR MAX TEMP:  46;

STATESBORO     MOCLDY    37  37 100 CALM      30.46S
SYLVANIA       MOCLDY    39  37  94 CALM      30.47R
CLAXTON        FAIR      37  37 100 CALM      30.45F

...CSRA...CENTRAL AND FAR SOUTHEAST GEORGIA...

CITY           SKY/WX    TMP DP  RH WIND       PRES   REMARKS
THOMSON        CLEAR     36  36 100 CALM      30.50R
AUGUSTA-BUSH   PTCLDY    34  33  96 CALM      30.48R FOG
6HR MIN TEMP:  34; 6HR MAX TEMP:  46;

AUGUSTA-DANIEL PTCLDY    45  35  68 E7        30.47R
SWAINSBORO     FAIR      41  39  93 CALM      30.46R
VIDALIA        MOCLDY    41  37  87 E5        30.44S
EASTMAN        FAIR      37  37 100 CALM      30.46S
HAZLEHURST     FAIR      43  40  88 E3        30.42S
ALMA           MOCLDY    41  36  82 VRB3      30.42S
6HR MIN TEMP:  41; 6HR MAX TEMP:  46;

WAYCROSS       CLOUDY    48  40  76 E8        30.41S
JESUP          MOCLDY    46  41  81 E7        30.42S
BAXLEY         FAIR      41  37  87 NE3       30.42F
BRUNSWICK      CLOUDY    50  37  62 NE10G16   30.41S
SAINT SIMONS   CLOUDY    50  39  66 NE15G23   30.39F
6HR MIN TEMP:  47; 6HR MAX TEMP:  50;


$$

SCZ027-028-034-036>038-045-046-048>050-GAZ119-141-280700-
...LAKE AND SUPPLEMENTAL COASTAL OBSERVATIONS...

STATION/POSITION TIME  TEMP    WIND        PRES    WAVE   SWELL
                       AIR SEA DIR/SP/G            HT/PER HT/PER/DIR
                 (UTC) (F)     (DEG/KT/KT) (MB)    (FT/S) (FT/S/D)
UPR LAKE MARION  NOT AVBL
WINYAH BAY       0445   42      30/  4     1031.0
LAKE MURRAY      0500   43      60/  4/ 10 1031.5R
ACE BASIN NERRS  NOT AVBL
FORT PULASKI     0500   48 49   40/ 12/ 15 1031.2R
SAPELO ISLAND    0500   49      40/ 10     1030.0R

$$

ANZ835-935-AMZ111-154-330-350-352-354-370-450-454-472-280700-
...C-MAN AND BUOY OBSERVATIONS...

STATION/POSITION TIME  TEMP    WIND        PRES    WAVE   SWELL
                       AIR SEA DIR/SP/G            HT/PER HT/PER/DIR
                 (UTC) (F)     (DEG/KT/KT) (MB)    (FT/S) (FT/S/D)
BUOY 41004       0550   55 64   50/ 21/ 25 1029.7F   6/ 6   3/10
BUOY 41008       0550   52 52   40/ 19/ 21 1028.6F   6/ 6   2/100/10
FOLLY BEACH CMAN 0600   45      30/ 12/ 14 1032.1R
CAPERS NEARSHORE NOT AVBL
FRIPP NEARSHORE  0500   49      70/ 16/ 19 1029.5F


STATION/POSITION TIME  TEMP    WIND        PRES    WAVE   SWELL
                       AIR SEA DIR/SP/G            HT/PER HT/PER/DIR
                 (UTC) (F)     (DEG/KT/KT) (MB)    (FT/S) (FT/S/D)
5E ST. MARYS GA  0551      53                N/A     6/ 6   2/100/11
FRYING PAN BUOY  0550   50 62   50/ 19/ 23 1032.4R   5/ 5   2/130/ 8
BUOY 41025       NOT AVBL
CAPE LOOKOUT NC  0500   36      20/ 14/ 17 1033.6R
BUOY 41002       0550   65 70   40/ 17/ 21 1027.2F  10/10   8/ 20/10
BUOY 41010       0520   67 71   60/ 21/ 25 1024.4R
ST AUGUSTINE FL  0600   56     360/ 20/ 21 1026.9S


$$



USA.gov is the U.S. government's official web portal to all federal, state and local government web resources and services.